Flag for Italy Weather past 2 weeks in Palermo, Italy

Now
86 °F

Sunny.


Feels Like: 89 °F
Forecast: 70 / 89 °F
Wind: 12 mph from Northeast

Location: Palermo / Punta Raisi

Current Time: Aug 27, 2014 at 3:04:04 PM

Latest Report: Aug 27, 2014 at 2:20 PM


Visibility: 10 mi

Pressure: 29.95 "Hg

Humidity: 55%

Dew point: 68 °F

Location of PalermoLocation

Historic Weather in Palermo — Graph

°F

Palermo temperature yesterday

Maximum temperature yesterday: 82 °F (at 11:50 AM)
Minimum temperature yesterday: 68 °F (at 6:50 AM)
Average temperature yesterday: 78 °F

Past Weeks' High & Low Weather Summary

 TemperatureHumidityPressure
High91 °F (Aug 13, 7:20 PM)94% (Aug 13, 2:20 AM)30.07 "Hg (Aug 13, 2:20 AM)
Low68 °F (Aug 26, 6:50 AM)24% (Aug 13, 7:50 PM)29.80 "Hg (Aug 13, 6:50 PM)
Average80 °F69%29.98 "Hg
* Reported Aug 12 1:20 PM — Aug 27 1:50 PM, Palermo, Weather by CustomWeather, © 2014

Note: Actual official high and low records may vary slightly from our data, if they occured in-between our weather recording intervals... More about our weather records

Advertising

Palermo weather history for previous 24 hours

 ConditionsComfort  
Time TempWeatherWind HumidityBarometerVisibility
1:50 PM
Aug 27
84 °FSunny.12 mph55%29.95 "Hg10 mi
1:20 PM84 °FSunny.12 mph62%29.95 "Hg10 mi
12:50 PM84 °FSunny.10 mph62%29.98 "Hg10 mi
12:20 PM82 °FSunny.12 mph66%29.98 "Hg10 mi
11:50 AM82 °FSunny.10 mph66%29.98 "Hg10 mi
11:20 AM82 °FSunny.9 mph62%29.98 "Hg10 mi
10:50 AM82 °FSunny.9 mph66%29.98 "Hg10 mi
10:20 AM81 °FSunny.8 mph70%29.98 "Hg10 mi
9:50 AM81 °FSunny.7 mph70%29.98 "Hg10 mi
9:20 AM81 °FSunny.2 mph62%29.98 "Hg10 mi
8:50 AM81 °FSunny.2 mph62%29.98 "Hg10 mi
8:20 AM79 °FSunny.2 mph61%29.95 "Hg10 mi
7:50 AM75 °FSunny.5 mph69%29.95 "Hg10 mi
7:20 AM72 °FClear.5 mph73%29.95 "Hg10 mi
6:50 AM73 °FClear.7 mph78%29.95 "Hg10 mi
6:20 AM73 °FClear.5 mph78%29.95 "Hg10 mi
5:50 AM73 °FClear.3 mph74%29.95 "Hg10 mi
5:20 AM73 °FPassing clouds.3 mph69%29.92 "HgN/A
4:50 AM72 °FClear.3 mph69%29.92 "Hg10 mi
4:20 AM72 °FClear.3 mph69%29.95 "Hg10 mi
3:50 AM73 °FClear.2 mph69%29.95 "Hg10 mi
3:20 AM73 °FClear.1 mph65%29.95 "Hg10 mi
2:50 AM73 °FClear.1 mph65%29.95 "Hg10 mi
2:20 AM73 °FClear.2 mph65%29.95 "Hg10 mi
1:50 AM73 °FClear.2 mph65%29.95 "Hg10 mi
1:20 AM73 °FClear.3 mph65%29.95 "Hg10 mi
12:50 AM75 °FClear.2 mph61%29.95 "Hg10 mi
12:20 AM75 °FClear.3 mph65%29.98 "Hg10 mi
11:50 PM
Aug 26
75 °FClear.1 mph65%29.98 "Hg10 mi
11:20 PM77 °FClear.2 mph61%29.98 "Hg10 mi
10:50 PM75 °FClear.5 mph65%29.98 "Hg10 mi
10:20 PM75 °FClear.6 mph69%29.98 "Hg10 mi
9:50 PM77 °FClear.5 mph65%29.98 "Hg10 mi
9:20 PM81 °FPassing clouds.6 mph62%29.98 "HgN/A
8:50 PM79 °FPassing clouds.6 mph70%29.98 "HgN/A
8:20 PM81 °FSunny.12 mph66%29.98 "Hg10 mi
7:50 PM81 °FSunny.13 mph66%29.95 "Hg10 mi
7:20 PM81 °FSunny.17 mph66%29.95 "Hg10 mi
6:50 PM82 °FSunny.20 mph58%29.95 "Hg10 mi
6:20 PM82 °FSunny.21 mph58%29.95 "Hg10 mi
5:50 PM82 °FSunny.21 mph58%29.95 "Hg10 mi
5:20 PM82 °FSunny.21 mph58%29.98 "Hg10 mi
4:50 PM82 °FSunny.20 mph58%29.98 "Hg10 mi
4:20 PM82 °FSunny.18 mph58%29.98 "Hg10 mi
3:50 PM82 °FSunny.17 mph58%29.98 "Hg10 mi
3:20 PM82 °FSunny.17 mph62%30.01 "Hg10 mi
Weather by CustomWeather, © 2014

See weather overviewHow to use our weather pages